STARLINK-30397, 57771

Orbit data source: Space-Track

STARLINK-30397, 57771 is a payload satellite in LEO that was launched on Mon, 04 Sep 2023 UTC via an FALCON 9 launch vehicle from the Air Force Eastern Test Range (AFETR). Payload-class satellites include a variety of spacecraft equipped with specific instruments for various scientific and technological missions. These include communications satellites like Starlink; space stations such as the ISS; scientific satellites like the Hubble; Earth observation satellites from companies like Planet Labs, Umbra, and HawkEye 360; GPS; miniature CubeSats for education and research; and military/defense satellites.

Loading next visibility...
Identifier
57771, 2023-134A
Orbit
LEO
Last TLE update
17 hours ago
Origin
Manufacturer
SpaceX/Seattle
Mission
Operational Commercial Communications
Bus & Motor
STARLINK V2M, Unknown motor
Mass
730 kg wet, ~700 kg dry
Launch date (UTC)
2023-09-04 (2 years ago)
Launch vehicle
FALCON 9
Launch site
Air Force Eastern Test Range (AFETR)
Object type
Payload
Rocket body
Debris
Shape & HBR
Box + 2 Pan, 29 m
Radar Cross Section
33.884 m², Large (>1 m²)

Expand to show TLE details & history

TLE from 17 hours ago
0 STARLINK-30397
1 57771U 23134A   25150.67208843 -.00007373  00000-0 -53072-3 0  9993
2 57771  43.0027 295.7287 0001062 276.9270  83.1451 15.02575772 96892
Epoch: 2025-05-30T16:07Z
TLE epoch observation values (Epoch: 2025-05-30T16:07:48.44Z)
Latitude
-0.00005°
Longitude
165.35335°
Altitude
558.647 km
Speed
7.584 km/s
True Right ascension
19h 42m 54s
True Declination
0° 00' 00"
Sunlit
Object was in full shadow at epoch
Visualization orbit readout
Latitude
14.92996°
Longitude
-34.93839°
Altitude
558.457 km
Speed
7.585 km/s
Apparent Right ascension
06h 22m 16s
Apparent Declination
-11° 11' 09"
Sunlit
Object is in daylight
Visualization observer readout
Local Sidereal Time
18:22:58
Azimuth
0.363° NNE
Elevation
-61.269°
Doppler factor
1
Orbital elements
Apogee altitude
561.618 km
Perigee altitude
560.144 km
Semi-major axis
6,939.018 km
Eccentricity
0.00011
Inclination
43.0027°
RAAN
295.7287°
Arg. of periapsis
276.927°
True anomaly
Unknown
Mean anomaly
83.1451°
Eccentric anomaly
Unknown
Mean motion
3.75488 °/min
Orbital period
95.88 mins
BSTAR
-0.00053072
Loading maneuver chart data...
Loading SW <> Apogee altitude chart data...
Loading historical data...
Loading historical data...
Loading historical data...
Loading historical data...
Loading historical data...
Loading historical data...
Loading historical data...

STARLINK-30397 Visibility forecast

Observer location: undefined°, undefined°

Span
Click to sort rows by Start time (UTC) header in descending order
Start Az.
Max El. time (UTC)
Max El. Az.
Max El.
End time (UTC)
End Az.
6 mins2025-05-31 13:06:01.374Z218.308° SW2025-05-31 13:08:01.374Z170.249° S36.838°2025-05-31 13:12:01.374Z79.047° E
7 mins2025-05-31 14:46:01.374Z271.17° WNW2025-05-31 14:49:01.374Z351.149° N41.895°2025-05-31 14:53:01.374Z71.883° E
7 mins2025-05-31 16:27:01.374Z291.21° WNW2025-05-31 16:30:01.374Z12.401° NNE41.114°2025-05-31 16:34:01.374Z89.25° E
6 mins2025-05-31 18:08:01.374Z278.156° WNW2025-05-31 18:11:01.374Z183.011° SSW39.205°2025-05-31 18:14:01.374Z129.826° SE
|